Dewpoint
53 54 54 54 54 54 55 54 55 55 55 55 56 57 57 58 56 47 30 34 41 67 66 49 44 42 41 37 35 35 31 27 26 24 28 28 29 29 27 26 24 24 26 30 36
52 52 53 53 53 53 54 54 54 53 54 55 55 55 57 57 45 25 40 54 66 66 49 43 41 40 36 34 32 32 30 26 24 25 26 27 28 27 27 27 25 26 30 32 34
52 52 52 52 52 53 53 53 53 53 53 54 54 55 56 54 32 13 66 60 65 62 36 41 38 37 35 33 32 32 31 28 24 24 25 27 24 26 26 26 26 25 25 32 33
52 52 52 52 52 52 52 52 52 52 53 53 53 55 56 46 10 37 65 65 66 44 33 29 34 32 35 32 31 29 30 28 24 23 26 26 26 25 25 26 25 25 23 28 33
52 52 52 52 52 52 52 52 52 52 52 52 53 54 47 32 23 27 66 63 45 38 33 28 30 32 32 32 29 30 29 28 23 23 26 26 25 26 24 24 23 24 26 27 31
52 52 52 52 52 52 53 53 53 53 51 52 53 54 44 26 19 17 38 45 43 38 32 29 30 32 30 29 27 29 28 25 25 24 26 24 26 24 26 25 24 27 28 28 31
53 53 52 52 52 52 53 53 53 52 52 52 52 48 36 26 17 15 15 17 20 28 34 30 27 27 30 28 26 27 26 25 26 24 26 26 25 26 26 27 26 27 31 31 32
54 53 53 52 52 52 53 53 52 52 52 52 52 44 34 23 24 21 21 30 32 32 24 30 29 26 28 28 26 26 26 25 25 25 25 25 25 27 27 28 30 29 29 31 34
53 53 53 53 52 52 52 52 52 52 52 52 49 41 26 35 24 19 17 14 15 24 31 29 30 26 26 26 24 27 25 25 23 25 25 25 25 26 27 28 28 29 30 31 34
51 52 53 53 53 52 52 52 50 48 53 48 37 39 34 19 17 21 18 15 17 19 28 27 30 27 25 25 22 25 25 25 24 25 28 25 25 27 28 28 29 28 31 33 35
50 51 52 52 53 52 49 40 36 43 43 29 28 27 13 20 18 18 20 20 20 19 17 25 27 25 26 27 25 25 25 23 24 25 26 27 28 28 30 28 27 28 30 35 38
50 50 51 51 52 53 48 39 30 35 32 39 37 29 26 21 23 17 25 21 20 18 17 26 27 26 26 25 25 26 25 24 25 26 28 29 29 29 26 26 27 28 29 34 39
49 50 50 51 52 49 43 36 36 34 28 22 22 25 25 23 21 19 17 22 16 15 19 24 26 26 23 25 25 26 26 26 25 27 28 28 26 25 25 26 26 27 31 35 40
48 49 51 51 47 41 37 36 34 35 22 18 17 18 18 22 22 21 18 21 17 13 18 23 23 24 23 24 24 25 25 24 25 27 24 25 21 25 25 23 24 26 30 34 39
49 47 50 50 41 40 37 36 34 36 17 14 17 19 17 19 15 17 18 21 19 14 17 18 21 22 23 23 25 24 24 24 26 27 26 24 23 24 24 21 21 23 27 35 40
49 47 49 44 41 40 41 37 36 28 16 15 19 21 16 16 18 13 17 20 21 14 16 15 19 21 21 23 25 25 23 24 25 26 23 23 22 21 19 20 21 23 27 37 39
50 48 46 40 39 39 41 37 26 18 16 15 18 21 16 16 17 15 16 17 19 17 19 17 16 21 24 25 25 22 25 21 24 24 23 23 21 24 23 19 21 24 29 37 39
50 49 43 38 39 39 41 32 23 17 17 15 16 19 16 16 17 17 16 15 20 20 16 16 16 20 24 26 22 22 24 20 23 22 19 24 22 22 22 21 24 27 35 40 41
49 46 37 37 40 39 40 30 22 18 16 17 15 17 19 16 17 19 18 15 16 22 19 17 18 19 23 24 23 22 22 24 24 23 18 21 24 25 21 23 28 31 38 42 43
47 42 36 35 43 39 36 28 21 19 16 17 17 17 19 16 17 18 19 19 15 17 22 23 22 19 21 24 23 22 23 23 22 24 24 20 22 21 24 23 34 37 41 43 42
45 39 35 37 47 41 30 29 24 22 21 22 21 21 18 18 17 17 16 16 17 14 19 22 26 22 22 26 21 18 19 25 26 22 21 22 21 27 25 27 31 38 41 41 41
41 37 35 47 37 38 31 26 29 22 18 21 24 23 24 22 20 20 18 18 15 17 17 24 28 25 23 23 25 22 21 26 23 27 23 23 22 26 28 26 33 36 40 39 40
39 37 43 46 33 34 28 25 25 25 23 23 23 26 28 28 28 22 21 16 14 18 22 28 28 27 25 25 26 24 21 23 29 31 28 21 22 24 28 29 32 35 40 38 40
39 36 40 43 40 34 33 25 22 27 23 27 27 25 27 28 30 28 21 19 15 16 38 38 33 30 23 26 24 25 21 23 27 27 26 23 24 27 29 29 34 36 40 39 39
38 35 34 33 35 35 32 31 27 21 27 28 25 25 25 28 27 26 22 21 19 30 30 36 34 27 24 20 21 23 21 19 23 25 26 26 25 26 27 29 31 38 40 40 38
39 35 35 36 32 30 31 28 26 24 26 27 23 25 26 29 31 27 26 28 25 22 24 39 34 29 23 20 19 22 23 22 20 21 24 25 27 27 27 26 30 37 39 40 39
44 40 37 32 36 33 31 29 26 26 23 30 28 25 25 28 34 35 34 36 36 27 33 33 33 32 26 21 18 20 22 22 23 21 23 24 28 27 27 28 30 35 38 40 40
Lifted_Index
13 12 12 11 10 10 10 10 10 10 11 10 10 10 9 9 8 6 5 6 5 2 0 0 1 1 1 1 1 1 1 1 0 -0 -0 -0 -0 -0 0 1 2 3 3 4 4
13 13 12 11 11 10 11 10 10 10 10 10 10 10 10 9 7 6 6 5 4 1 1 1 1 1 1 1 1 1 1 1 1 1 0 0 -0 -0 -0 0 1 2 3 4 4
13 13 12 12 11 11 11 11 11 11 10 10 11 11 10 8 6 5 5 4 3 2 2 2 1 1 1 1 1 1 1 2 2 1 1 1 0 -0 0 0 1 1 2 3 4
13 13 13 13 12 12 11 11 11 11 11 11 11 10 9 7 5 4 3 3 3 3 4 3 2 1 0 0 1 1 2 2 2 2 1 1 1 0 0 1 1 2 2 3 3
14 14 13 13 13 12 12 12 12 12 12 12 11 10 9 7 5 5 4 3 4 5 5 4 2 1 0 0 1 2 2 2 2 2 2 1 1 1 1 1 1 2 2 3 3
14 14 14 13 13 13 12 12 12 12 12 12 12 11 9 7 7 7 6 5 5 5 5 4 3 1 1 1 2 2 2 2 2 2 2 2 2 1 1 1 2 2 2 3 3
14 14 14 14 14 13 13 13 13 13 13 12 12 11 9 8 8 8 8 7 6 6 5 5 4 3 2 2 2 2 2 2 2 2 2 2 2 1 1 1 2 2 2 2 3
14 14 14 14 14 14 13 13 13 13 13 12 11 11 10 9 9 9 9 8 7 6 6 5 5 4 3 2 2 2 2 1 1 1 1 2 2 1 1 1 1 1 2 2 2
14 14 14 14 14 14 14 14 13 13 12 11 11 10 10 9 9 9 9 9 8 7 6 6 5 4 3 3 3 2 1 1 0 -0 0 1 1 0 0 1 1 1 2 2 2
15 15 14 14 14 14 14 13 13 12 11 10 10 10 9 9 9 9 9 9 9 8 7 6 5 4 4 3 2 1 0 -0 -0 -0 0 0 0 0 0 1 1 2 2 2 2
15 15 15 14 14 14 14 13 12 10 10 9 9 9 9 9 10 9 9 9 9 8 7 6 5 4 4 3 2 1 -0 -0 -0 -0 -1 -0 0 1 1 1 2 2 2 2 2
16 15 15 15 14 14 13 12 11 11 10 9 9 9 9 9 9 9 9 9 8 7 6 5 4 4 3 3 2 1 0 0 -0 -1 -1 -0 1 1 1 2 2 2 2 2 1
16 16 15 15 14 13 13 12 12 11 10 9 9 9 9 9 9 9 9 8 8 7 6 5 4 3 3 2 2 1 1 1 0 -0 -1 -0 1 1 1 2 2 2 2 1 1
17 16 16 15 14 13 12 12 12 11 9 8 9 9 9 9 8 8 8 8 7 7 6 4 3 3 3 2 2 1 1 1 1 0 -0 0 0 0 0 1 1 2 2 1 1
16 16 16 15 14 12 12 12 11 9 6 6 7 8 8 8 8 7 8 8 7 6 6 5 4 3 3 2 2 1 1 1 1 1 1 0 0 0 -0 0 1 1 1 1 1
13 14 15 14 14 12 12 11 10 7 5 5 7 8 7 7 7 7 7 7 6 6 5 4 4 3 3 2 2 2 2 1 1 1 1 1 0 0 -0 -0 0 1 1 1 1
9 10 12 12 12 12 11 10 8 6 5 6 6 7 6 6 6 6 6 6 6 5 5 4 4 3 3 2 3 3 2 2 1 0 0 0 0 0 0 0 1 1 -0 -0 -0
6 7 8 9 9 9 10 9 7 6 6 5 5 5 5 5 6 6 6 5 5 5 4 4 3 3 3 3 3 3 3 2 1 -0 -0 0 0 0 0 1 1 0 -1 -1 -1
4 5 5 5 5 6 7 8 8 8 6 4 3 3 4 5 5 5 5 5 5 5 4 3 3 3 3 3 3 3 3 2 1 0 -0 -0 -0 0 0 0 -0 -1 -1 -1 -1
4 4 4 4 3 3 5 7 9 9 6 3 2 1 2 3 4 4 5 5 5 5 4 3 2 2 3 3 3 3 3 2 1 0 -0 -0 -0 0 0 -0 -1 -2 -2 -1 -1
4 4 3 2 2 3 4 7 8 8 5 3 2 1 1 1 2 3 4 4 5 5 4 3 2 2 2 3 3 3 3 2 1 0 -0 -0 -0 0 0 -0 -2 -2 -2 -1 -0
3 3 2 1 1 2 4 5 6 6 5 4 4 3 2 1 1 1 2 3 3 4 4 3 2 2 2 3 3 3 3 2 2 1 -0 -0 -0 0 0 -0 -1 -2 -2 -1 -0
1 1 1 1 1 1 2 3 4 4 3 4 4 4 3 2 1 1 1 2 2 3 4 3 2 2 2 2 3 3 3 3 2 1 0 -0 -0 0 0 -0 -1 -2 -2 -1 -0
1 0 0 0 0 1 1 2 2 2 2 3 4 4 4 3 2 1 1 1 1 2 3 2 2 2 2 2 2 3 3 3 3 2 1 1 0 -0 -0 -1 -1 -2 -2 -1 -1
1 0 0 0 0 0 0 1 1 1 1 2 2 3 3 2 1 1 0 0 1 2 2 2 2 2 2 2 2 3 3 3 3 3 2 1 0 -0 -0 -1 -1 -2 -2 -1 -1
1 0 0 0 0 0 0 0 0 0 0 1 1 2 2 2 1 1 1 0 1 1 2 2 2 2 2 2 1 2 3 3 3 3 2 2 1 -0 -1 -1 -1 -2 -2 -1 -1
0 1 1 0 0 0 0 0 0 -0 -0 0 1 1 2 2 2 1 1 1 1 1 1 1 2 2 2 2 1 1 3 3 3 3 3 2 1 -0 -1 -1 -1 -2 -2 -1 -1